Погода в Кяхте

Погода в Кяхте : погода сейчас, прогноз погоды и архив. Всё, что Вы хотите узнать о погоде в Кяхте!

Поиск расширенной информации на нашем сайте:

Другие новости

Новости СМИ2

Главная страница сайта

Новости сайта

03.07.2017

Напоминаем, что на нашем специализированном сайте Метеоцентр.Азия вы можете получить высокодетализированные автоматические прогнозы погоды по пунктам России, СНГ и мира в авиационном формате (включающие направление и скорость ветра, видимость, явления погоды, количество и форму облачности, нижнюю и верхнюю границу облачности).

Рекомендуем: Популярные фирмы - стеклобанка. В паллетах

Погода в Кяхте - сегодня

Время (UTC), дата Ветер
(°,м/с) 
Видим.   Явления Облачность Т
(°С)
Тd
(°С)
f(%) Тe
(°С)
Pmin
(гПа)
dP
(гПа)
Po
(мм)
O2
(г/м3)
Тmin Tmax R s Состояние
почвы
06 22.09.17 190 (Ю) 4{11}  20000 м    9/0 верхняя 
[Cs]
+12.6 +2.6 50 +12  999.9  -1.5  682  262           
09 22.09.17 200 (Ю) 20000 м    8/3 2000 м средняя, верхняя 
[Ac lent|Cs]
+13.6 +1.9 45 +14  999.3  -0.3  682  261           
12 22.09.17 тихо ()   н/о    10/4 2000 м средняя, верхняя 
[Ac trans|Cs]
+8.6 +3 68 +9  1000.9  0.1  682  266    +14.8       
15 22.09.17 330 (СЗ) н/о    3/3 2000 м средняя 
[Ac lent]
+9.2 +2.3 62 +10  1001.8  0.9  683  266           
18 22.09.17 тихо ()   н/о    ясно 
+5.5 +3.1 85 +6  1004.1  684  269           
21 22.09.17 тихо ()   н/о    ясно 
+5.8 +2.4 79 +6  1005.3  1.1  685  270           
00 23.09.17 020 (С) н/о    н/о 
+6 +1.7 74 +7  1007.7  1.9  686  270  +2.6         
03 23.09.17 340 (С) 20000 м  слаб. дождь  10/8 600 м средняя 
[Sc|Ac As]
+6.8 +4 82 +7  1009.4  688  270           
06 23.09.17 140 (ЮВ) 20000 м  в посл. час дождь  9/4 600 м средняя, верхняя 
[Sc|Ac As|Ci fib]
+7.6 +5.6 87 +9  1010.3  1.1  688  269           
09 23.09.17 160 (Ю) н/о    н/о 
+10.2 +4.5 68 +11  1010.3  0.5  689  267           
12 23.09.17 тихо ()   н/о    3/1 2000 м средняя, верхняя 
[Ac trans|Ci fib]
+5.9 +4.3 89 +6  1012.8  1.2  690  271    +11.5     
15 23.09.17 тихо ()   н/о    н/о 
+2.1 +2.1 100 +2  1015.3  0.7  691  276           
18 23.09.17 320 (СЗ) 71  н/о    3/0 верхняя 
[Ci fib]
+2.3 +2.3 100 -8  1014.7  -0.1  690  275           
21 23.09.17 360 (С) н/о    4/3 2000 м средняя, верхняя 
[Ac trans|Ci fib]
+1 +0.7 98 +2  1013.7  -1.4  689  276           
00 24.09.17 100 (В) 20000 м  туман местами  9/4 1000 м средняя 
[Sc|Ac As]
+4.5 +2.8 89 +4  1010.2  -2  688  272  +0.9        влажная 
03 24.09.17 030 (СВ) 20000 м    4/3 2000 м средняя, верхняя 
[Ac trans|Cc]
+9.5 +3.8 68 +11  1004.9  -3.3  685  266           
06 24.09.17 180 (Ю) 20000 м    3/1 2000 м средняя, верхняя 
[Ac lent|Ci fib]
+14.9 +3.8 47 +16  999.9  -2.9  683  260           
09 24.09.17 180 (Ю) 20000 м    10/4 2000 м средняя, верхняя 
[Ac trans|Ci fib]
+16.2 +5.1 48 +18  997.9  -1.4  682  258           
12 24.09.17 240 (ЮЗ) н/о    н/о 
+10.8 +7.2 78 +10  999.5  682  263    +16.7       
15 24.09.17 180 (Ю) н/о    8/0 верхняя 
[Ci fib]
+12.9 +4.4 56 +12  999.6  0.5  682  262           
18 24.09.17 330 (СЗ) 3{10}  н/о    8/0 верхняя 
[Ci fib]
+6.3 +1.6 72 +5  1005.1  2.9  685  269           
21 24.09.17 тихо ()   н/о    8/3 2000 м средняя, верхняя 
[Ac trans|Ci fib]
+2.5 +0.6 87 +3  1008.8  2.2  686  274           
00 25.09.17 340 (С) 5-10{13}  20000 м    10/8 1000 м средняя, верхняя 
[Sc|Ac trans|Ci fib]
+4.1 -3.1 59 +2  1011  2.4  688  273  +2.3        влажная 
03 25.09.17 330 (СЗ) 7-14{13}  20000 м  слаб. крупа{ливн. осадки}  10/8 600 м кучево-дожд., средняя, верхняя 
[Cb cap|Ac As|Cs]
+5.9 -2.7 54 +3  1014.5  3.8  691  273           
06 25.09.17 340 (С) 6-12{19}  20000 м  {ливн. осадки}  8/5 600 м кучево-дожд., средняя, верхняя 
[Cb cap|Ac trans|Ci fib]
+6.4 -4.2 47 +4  1016.6  2.1  692  273           
Время (UTC), дата Ветер
(°,м/с) 
Видим.   Явления Облачность Т
(°С)
Тd
(°С)
f(%) Тe
(°С)
Pmin
(гПа)
dP
(гПа)
Po
(мм)
O2
(г/м3)
Тmin Tmax R s Состояние
почвы

Для получения пояснительной информации подведите курсор к названию столбца.

ПОГОДА в Кяхте - архив

Всё, что Вы хотите узнать о погоде в Кяхте - удобно и подробно!

Выберите нужную дату (начиная с 1 января 2015* года) и нажмите кнопку "Найти".
Будут отображены архивные сводки погоды по пункту Кяхта, начиная с указанной даты.


Отображать данные в формате CSV (для использования в таблицах Excel)


Внимание! Наш архив погоды предназначен исключительно для личного некоммерческого использования в познавательных целях. Если Вам необходимы официальные справки о состоянии погоды (для производственных, юридических, коммерческих и т.п. целей), обращайтесь в органы Росгидромета.

*Примечание: данная дата относится к архиву по метеостанциям СССР (Россия, СНГ, Балтия).
Архив по метеостанциям Зарубежной Европы и Азии (кроме Китая) хранится 10 дней, по другим регионам земного шара (Китай, Африка, Америка, Австралия, Океания) - 1 день.

Кяхта - район местоположения метеостанции


Название, широта, долгота, высота метеостанции:
Кяхта 50.4°ш. 106.4°д. 797 м над ур. моря [Российская Федерация]

Дополнительная информация

В oтличие oт бoльшинства пoгoдных сайтoв мы публикуем пoдрoбную метеoинфoрмацию в детальнoм прoфессиoнальнoм фoрмате.

Характеристики температуры и влажнoсти вoздуха измеряются на высoте 2 м в тени вдали oт зданий и деревьев.
Скoрoсть ветра измеряется на высoте 10 м (на урoвне рoста челoвека скoрoсть ветра ниже в 1.5-2 раза). Если метеoстанция нахoдится в гoрoде или в лесу, тo скoрoсть ветра занижена на 2-4 м/с пo сравнению с oткрытым местoм. Скoрoсть ветра над акватoриями крупных рек и oзёр, а также на вершинах хoлмoв на 2-5 м/с выше, чем в oбычных услoвиях.
Атмoсфернoе давление в разных тoчках местнoсти мoжет значительнo oтличаться oт давления на метеoстанции, в зависимoсти oт услoвий рельефа (при пoдъёме на 10 м давление пoнижается примернo на 1 мм рт.ст.).